Location: Fenile
(46.0500°N, 9.5500°E)
Time: 07:31:14
(UTC+00:00)

Cosmos 2184 Rocket - Pass Details

Date: 03 March 2021
Orbit: 960 x 1001 km, 82.9° (Epoch: 10 April)

Event Time Altitude Azimuth Distance (km) Brightness Sun altitude
Rises 17:53:46 0° 187° (S) 3,629 7.1 -8.2°
Reaches altitude 10° 17:56:15 10° 188° (S) 2,688 6.4 -8.6°
Maximum altitude 18:02:25 87° 278° (W) 972 4.1 -9.7°
Drops below altitude 10° 18:08:40 10° 8° (N) 2,723 6.3 -10.8°
Sets 18:11:11 0° 9° (N) 3,680 7.0 -11.2°
